,,Stat5,,Stat1,,Stat2,,Stat3,,Stat4,,Wind1,,Wind1,
time,status,PA1M_AVG,status,PR1M_SUM,status,RH1M_AVG,status,SR1M_AVG,status,TA1M_AVG,status,W1dAve1m,status,W1sAve1m,
2002-12-29, 00:00:00,VALID,919.281,VALID,0,VALID,92.1227,VALID,-0.101885,VALID,19.5093,VALID,16,VALID,0,
2002-12-29, 00:01:01,VALID,919.247,VALID,0,VALID,92.3452,VALID,-0.101885,VALID,19.4899,VALID,16,VALID,0.0276989,
2002-12-29, 00:02:00,VALID,919.218,VALID,0,VALID,92.6084,VALID,-0.0849042,VALID,19.477,VALID,17,VALID,0.0342882,
2002-12-29, 00:03:00,VALID,919.206,VALID,0,VALID,91.8734,VALID,-0.0679233,VALID,19.4315,VALID,17,VALID,0,
2002-12-29, 00:04:01,VALID,919.202,VALID,0,VALID,91.0621,VALID,-0.101885,VALID,19.4029,VALID,17,VALID,0,
2002-12-29, 00:05:00,VALID,919.176,VALID,0,VALID,90.4251,VALID,-0.101885,VALID,19.4118,VALID,15,VALID,0.0506696,
2002-12-29, 00:06:00,VALID,919.182,VALID,0,VALID,90.4225,VALID,-0.0849042,VALID,19.4802,VALID,15,VALID,0.0100446,
2002-12-29, 00:07:00,VALID,919.176,VALID,0,VALID,90.6705,VALID,-0.0509425,VALID,19.5018,VALID,15,VALID,0,
2002-12-29, 00:08:00,VALID,919.165,VALID,0,VALID,90.275,VALID,0,VALID,19.4911,VALID,21,VALID,0.289679,
2002-12-29, 00:09:01,VALID,919.14,VALID,0,VALID,90.4823,VALID,0.0339617,VALID,19.5008,VALID,27,VALID,0.140625,
2002-12-29, 00:10:01,VALID,919.125,VALID,0,VALID,90.8739,VALID,0.0339617,VALID,19.5105,VALID,22,VALID,0.317945,
2002-12-29, 00:11:01,VALID,919.125,VALID,0,VALID,90.7671,VALID,0.0169808,VALID,19.4715,VALID,8,VALID,0.396484,
2002-12-29, 00:12:00,VALID,919.086,VALID,0,VALID,91.4754,VALID,0,VALID,19.4362,VALID,13,VALID,0.31317,
2002-12-29, 00:13:00,VALID,919.086,VALID,0,VALID,91.8429,VALID,0,VALID,19.4171,VALID,13,VALID,0.184896,
2002-12-29, 00:14:00,VALID,919.088,VALID,0,VALID,92.2486,VALID,0.0169808,VALID,19.3848,VALID,13,VALID,0.0765625,
2002-12-29, 00:15:00,VALID,919.103,VALID,0,VALID,92.466,VALID,0,VALID,19.3333,VALID,13,VALID,0.104018,
2002-12-29, 00:16:00,VALID,919.105,VALID,0,VALID,92.3541,VALID,0,VALID,19.2784,VALID,23,VALID,0.293213,
2002-12-29, 00:17:00,VALID,919.115,VALID,0,VALID,92.2854,VALID,0.0169808,VALID,19.249,VALID,33,VALID,0.112459,
2002-12-29, 00:18:01,VALID,919.129,VALID,0,VALID,92.1913,VALID,0.0169808,VALID,19.249,VALID,33,VALID,0,
2002-12-29, 00:19:01,VALID,919.149,VALID,0,VALID,92.5868,VALID,0,VALID,19.2684,VALID,33,VALID,0,
2002-12-29, 00:20:00,VALID,919.132,VALID,0,VALID,92.4622,VALID,0.0169808,VALID,19.262,VALID,33,VALID,0.306641,
2002-12-29, 00:21:01,VALID,919.107,VALID,0,VALID,92.7992,VALID,0,VALID,19.2587,VALID,33,VALID,0.353299,
2002-12-29, 00:22:00,VALID,919.065,VALID,0,VALID,92.9886,VALID,-0.0339617,VALID,19.2336,VALID,33,VALID,0.166667,
2002-12-29, 00:23:00,VALID,919.049,VALID,0,VALID,93.1946,VALID,-0.0509425,VALID,19.2055,VALID,33,VALID,0,
2002-12-29, 00:24:00,VALID,919.051,VALID,0,VALID,93.1679,VALID,-0.0679233,VALID,19.1891,VALID,33,VALID,0,
2002-12-29, 00:25:00,VALID,919.033,VALID,0,VALID,93.0764,VALID,-0.0509425,VALID,19.1727,VALID,33,VALID,0,
2002-12-29, 00:26:00,VALID,919.023,VALID,0,VALID,92.9187,VALID,-0.0509425,VALID,19.1727,VALID,33,VALID,0,
2002-12-29, 00:27:01,VALID,919.016,VALID,0,VALID,92.9365,VALID,0,VALID,19.1826,VALID,33,VALID,0.130974,
2002-12-29, 00:28:01,VALID,919.007,VALID,0,VALID,92.6478,VALID,-0.0339617,VALID,19.1595,VALID,61,VALID,0.327652,
2002-12-29, 00:29:00,VALID,918.997,VALID,0,VALID,92.4596,VALID,-0.0169808,VALID,19.1302,VALID,66,VALID,0.00173611,
2002-12-29, 00:30:00,VALID,919.003,VALID,0,VALID,92.6211,VALID,-0.0509425,VALID,19.1339,VALID,67,VALID,0.000434028,
2002-12-29, 00:31:00,VALID,919.008,VALID,0,VALID,92.4774,VALID,-0.0679233,VALID,19.1374,VALID,99,VALID,0.429214,
2002-12-29, 00:32:00,VALID,919.023,VALID,0,VALID,92.7165,VALID,-0.0339617,VALID,19.1307,VALID,141,VALID,0.365625,
2002-12-29, 00:33:00,VALID,919.032,VALID,0,VALID,92.8348,VALID,-0.0679233,VALID,19.1275,VALID,144,VALID,0,
2002-12-29, 00:34:00,VALID,919.043,VALID,0,VALID,92.9378,VALID,-0.0679233,VALID,19.1178,VALID,144,VALID,0.116943,
2002-12-29, 00:35:01,VALID,919.048,VALID,0,VALID,92.9746,VALID,-0.0169808,VALID,19.1245,VALID,145,VALID,0.32278,
2002-12-29, 00:36:01,VALID,919.065,VALID,0,VALID,93.028,VALID,-0.0679233,VALID,19.1148,VALID,145,VALID,0.4892,
2002-12-29, 00:37:01,VALID,919.071,VALID,0,VALID,93.2353,VALID,-0.101885,VALID,19.1016,VALID,145,VALID,0.562027,
2002-12-29, 00:38:00,VALID,919.07,VALID,0,VALID,93.3765,VALID,-0.0849042,VALID,19.1023,VALID,129,VALID,0.349609,
2002-12-29, 00:39:00,VALID,919.066,VALID,0,VALID,93.4108,VALID,-0.101885,VALID,19.0892,VALID,124,VALID,0.435764,
2002-12-29, 00:40:00,VALID,919.082,VALID,0,VALID,93.5418,VALID,-0.101885,VALID,19.1021,VALID,97,VALID,0.162879,
2002-12-29, 00:41:00,VALID,919.085,VALID,0,VALID,93.6244,VALID,-0.101885,VALID,19.112,VALID,71,VALID,0,
2002-12-29, 00:42:00,VALID,919.08,VALID,0,VALID,93.6371,VALID,-0.0849042,VALID,19.1026,VALID,64,VALID,0.256696,
2002-12-29, 00:43:00,VALID,919.087,VALID,0,VALID,93.7694,VALID,-0.0849042,VALID,19.08,VALID,73,VALID,0.290039,
2002-12-29, 00:44:00,VALID,919.078,VALID,0,VALID,93.5532,VALID,-0.101885,VALID,19.0601,VALID,99,VALID,0.615748,
2002-12-29, 00:45:01,VALID,919.044,VALID,0,VALID,93.5748,VALID,-0.0679233,VALID,19.0959,VALID,72,VALID,0.709099,
2002-12-29, 00:46:01,VALID,919.018,VALID,0,VALID,93.6486,VALID,-0.0849042,VALID,19.1349,VALID,69,VALID,0.367661,
2002-12-29, 00:47:00,VALID,919.011,VALID,0,VALID,93.4197,VALID,-0.101885,VALID,19.1347,VALID,57,VALID,0.508681,
2002-12-29, 00:48:00,VALID,918.999,VALID,0,VALID,93.7923,VALID,-0.101885,VALID,19.1185,VALID,46,VALID,0.140191,
2002-12-29, 00:49:01,VALID,918.99,VALID,0,VALID,93.9703,VALID,-0.101885,VALID,19.1155,VALID,46,VALID,0.0987216,
2002-12-29, 00:50:01,VALID,919.009,VALID,0,VALID,93.2137,VALID,-0.101885,VALID,19.0922,VALID,41,VALID,0.158482,
2002-12-29, 00:51:00,VALID,919.01,VALID,0,VALID,92.5232,VALID,-0.0849042,VALID,19.1344,VALID,39,VALID,0.330357,
2002-12-29, 00:52:01,VALID,918.983,VALID,0,VALID,92.5181,VALID,-0.0679233,VALID,19.2127,VALID,37,VALID,0.89917,
2002-12-29, 00:53:00,VALID,918.949,VALID,0,VALID,92.789,VALID,-0.118866,VALID,19.2378,VALID,31,VALID,0.900699,
2002-12-29, 00:54:01,VALID,918.931,VALID,0,VALID,92.8538,VALID,-0.101885,VALID,19.2057,VALID,33,VALID,0.37477,
2002-12-29, 00:55:01,VALID,918.944,VALID,0,VALID,93.0268,VALID,-0.101885,VALID,19.1963,VALID,26,VALID,0.00284091,
2002-12-29, 00:56:01,VALID,918.945,VALID,0,VALID,93.0128,VALID,-0.0849042,VALID,19.2092,VALID,25,VALID,0,
2002-12-29, 00:57:00,VALID,918.934,VALID,0,VALID,92.7063,VALID,-0.101885,VALID,19.2219,VALID,25,VALID,0,
2002-12-29, 00:58:00,VALID,918.885,VALID,0,VALID,92.5855,VALID,-0.101885,VALID,19.2376,VALID,36,VALID,0.458807,
2002-12-29, 00:59:01,VALID,918.85,VALID,0,VALID,91.8226,VALID,-0.101885,VALID,19.29,VALID,36,VALID,1.27634,
2002-12-29, 01:00:01,VALID,918.815,VALID,0,VALID,91.6649,VALID,-0.101885,VALID,19.3673,VALID,20,VALID,0.66808,
2002-12-29, 01:01:01,VALID,918.806,VALID,0,VALID,91.5187,VALID,-0.0679233,VALID,19.3671,VALID,356,VALID,0.775391,
2002-12-29, 01:02:01,VALID,918.775,VALID,0,VALID,91.4881,VALID,-0.0679233,VALID,19.4026,VALID,3,VALID,0.603207,
2002-12-29, 01:03:01,VALID,918.762,VALID,0,VALID,91.3724,VALID,-0.0849042,VALID,19.4282,VALID,351,VALID,0.600414,
2002-12-29, 01:04:01,VALID,918.725,VALID,0,VALID,90.4823,VALID,-0.0339617,VALID,19.4804,VALID,351,VALID,0.326941,
2002-12-29, 01:05:01,VALID,918.703,VALID,0,VALID,90.0334,VALID,-0.0509425,VALID,19.5381,VALID,9,VALID,0.230252,
2002-12-29, 01:06:01,VALID,918.681,VALID,0,VALID,89.3874,VALID,-0.101885,VALID,19.5801,VALID,166,VALID,0.442491,
2002-12-29, 01:07:01,VALID,918.67,VALID,0,VALID,88.7733,VALID,-0.0339617,VALID,19.7099,VALID,230,VALID,0.405777,
2002-12-29, 01:08:01,VALID,918.655,VALID,0,VALID,89.8897,VALID,-0.0169808,VALID,19.7952,VALID,2,VALID,0.571652,
2002-12-29, 01:09:01,VALID,918.643,VALID,0,VALID,89.5604,VALID,0.0339617,VALID,19.7596,VALID,332,VALID,0.297991,
2002-12-29, 01:10:01,VALID,918.62,VALID,0,VALID,88.8928,VALID,0.0169808,VALID,19.7663,VALID,258,VALID,0.230469,
2002-12-29, 01:11:01,VALID,918.615,VALID,0,VALID,89.3874,VALID,0.0339617,VALID,19.7855,VALID,346,VALID,0.219984,
2002-12-29, 01:12:01,VALID,918.591,VALID,0,VALID,88.8419,VALID,0,VALID,19.7927,VALID,22,VALID,0.750689,
2002-12-29, 01:13:01,VALID,918.568,VALID,0,VALID,89.4243,VALID,0.0169808,VALID,19.8019,VALID,18,VALID,1.48603,
2002-12-29, 01:14:01,VALID,918.551,VALID,0,VALID,89.3379,VALID,0.0339617,VALID,19.7733,VALID,7,VALID,1.12457,
2002-12-29, 01:15:01,VALID,918.555,VALID,0,VALID,89.3595,VALID,0.0169808,VALID,19.7179,VALID,357,VALID,0.595269,
2002-12-29, 01:16:01,VALID,918.574,VALID,0,VALID,89.0467,VALID,0.0169808,VALID,19.7144,VALID,358,VALID,0.390388,
2002-12-29, 01:17:01,VALID,918.581,VALID,0,VALID,88.9856,VALID,0.0679233,VALID,19.7273,VALID,358,VALID,0.0808036,
2002-12-29, 01:18:00,VALID,918.558,VALID,0,VALID,88.6359,VALID,0.0339617,VALID,19.7594,VALID,7,VALID,0.61875,
2002-12-29, 01:19:00,VALID,918.545,VALID,0,VALID,88.9475,VALID,0.0169808,VALID,19.7857,VALID,4,VALID,0.363037,
2002-12-29, 01:20:00,VALID,918.547,VALID,0,VALID,88.627,VALID,0.0339617,VALID,19.7793,VALID,4,VALID,0.277138,
2002-12-29, 01:21:00,VALID,918.524,VALID,0,VALID,88.0014,VALID,0,VALID,19.8116,VALID,350,VALID,0.238741,
2002-12-29, 01:22:00,VALID,918.505,VALID,0,VALID,88.819,VALID,0,VALID,19.8665,VALID,359,VALID,0.717093,
2002-12-29, 01:23:00,VALID,918.439,VALID,0,VALID,89.5451,VALID,-0.0169808,VALID,19.8083,VALID,337,VALID,1.05295,
2002-12-29, 01:24:00,VALID,918.439,VALID,0,VALID,89.1229,VALID,0.0339617,VALID,19.7671,VALID,282,VALID,0.442274,
2002-12-29, 01:25:00,VALID,918.426,VALID,0,VALID,88.0243,VALID,0,VALID,19.825,VALID,267,VALID,0.348248,
2002-12-29, 01:26:00,VALID,918.416,VALID,0,VALID,87.6275,VALID,-0.0169808,VALID,19.8891,VALID,224,VALID,0.415848,
2002-12-29, 01:27:00,VALID,918.383,VALID,0,VALID,87.4215,VALID,-0.0169808,VALID,19.9386,VALID,250,VALID,0.317411,
2002-12-29, 01:28:00,VALID,918.367,VALID,0,VALID,87.4228,VALID,0,VALID,19.9615,VALID,328,VALID,0.203125,
2002-12-29, 01:29:00,VALID,918.352,VALID,0,VALID,87.6886,VALID,0,VALID,19.9675,VALID,328,VALID,0.032278,
2002-12-29, 01:30:00,VALID,918.354,VALID,0,VALID,87.494,VALID,-0.0339617,VALID,19.9707,VALID,339,VALID,0.0884651,
2002-12-29, 01:31:00,VALID,918.35,VALID,0,VALID,88.9818,VALID,0,VALID,19.9254,VALID,25,VALID,0.646544,
2002-12-29, 01:32:00,VALID,918.339,VALID,0,VALID,89.3989,VALID,0,VALID,19.7862,VALID,280,VALID,0.236111,
2002-12-29, 01:33:00,VALID,918.35,VALID,0,VALID,89.4676,VALID,-0.0169808,VALID,19.7054,VALID,263,VALID,0.113715,
2002-12-29, 01:34:00,VALID,918.352,VALID,0,VALID,89.7524,VALID,0,VALID,19.6696,VALID,263,VALID,0.0153883,
2002-12-29, 01:35:00,VALID,918.35,VALID,0,VALID,90.2229,VALID,-0.0169808,VALID,19.6602,VALID,263,VALID,0.0125,
2002-12-29, 01:36:00,VALID,918.347,VALID,0,VALID,90.4022,VALID,0,VALID,19.6147,VALID,191,VALID,0.286607,
2002-12-29, 01:37:00,VALID,918.321,VALID,0,VALID,90.1644,VALID,0.0169808,VALID,19.5824,VALID,183,VALID,0.000488281,
2002-12-29, 01:38:00,VALID,918.28,VALID,0,VALID,90.7328,VALID,0,VALID,19.566,VALID,106,VALID,0.426398,
2002-12-29, 01:39:00,VALID,918.26,VALID,0,VALID,91.1677,VALID,0,VALID,19.5436,VALID,16,VALID,0.0431985,
2002-12-29, 01:40:00,VALID,918.249,VALID,0,VALID,91.024,VALID,0,VALID,19.4984,VALID,16,VALID,0.000236742,
2002-12-29, 01:41:00,VALID,918.237,VALID,0,VALID,90.8155,VALID,0.0169808,VALID,19.4723,VALID,10,VALID,0.9273,
2002-12-29, 01:42:00,VALID,918.165,VALID,0,VALID,91.4805,VALID,0,VALID,19.4529,VALID,20,VALID,1.41081,
2002-12-29, 01:43:00,VALID,918.101,VALID,0,VALID,91.7119,VALID,0.0169808,VALID,19.4235,VALID,15,VALID,1.35985,
2002-12-29, 01:44:00,VALID,918.102,VALID,0,VALID,91.4449,VALID,0,VALID,19.4079,VALID,359,VALID,1.05134,
2002-12-29, 01:45:00,VALID,918.133,VALID,0,VALID,90.5777,VALID,0.0169808,VALID,19.4725,VALID,6,VALID,0.959598,
2002-12-29, 01:46:00,VALID,918.128,VALID,0,VALID,90.0728,VALID,0,VALID,19.5856,VALID,18,VALID,1.01025,
2002-12-29, 01:47:00,VALID,918.118,VALID,0,VALID,90.1618,VALID,-0.0169808,VALID,19.6634,VALID,16,VALID,1.10876,
2002-12-29, 01:48:00,VALID,918.11,VALID,0,VALID,90.434,VALID,0,VALID,19.6664,VALID,18,VALID,0.990809,
2002-12-29, 01:49:00,VALID,918.086,VALID,0,VALID,90.1262,VALID,0,VALID,19.6147,VALID,16,VALID,1.20099,
2002-12-29, 01:50:00,VALID,918.074,VALID,0,VALID,89.8452,VALID,0,VALID,19.6276,VALID,23,VALID,1.62934,
2002-12-29, 01:51:00,VALID,918.057,VALID,0,VALID,90.069,VALID,0,VALID,19.6376,VALID,33,VALID,1.74696,
2002-12-29, 01:52:00,VALID,918.026,VALID,0,VALID,90.2954,VALID,0,VALID,19.6348,VALID,18,VALID,1.2313,
2002-12-29, 01:53:00,VALID,918.05,VALID,0,VALID,89.9279,VALID,0.0169808,VALID,19.6244,VALID,337,VALID,0.577679,
2002-12-29, 01:54:00,VALID,918.054,VALID,0,VALID,89.7257,VALID,0,VALID,19.6602,VALID,334,VALID,0.422991,
2002-12-29, 01:55:00,VALID,918.026,VALID,0,VALID,89.3785,VALID,-0.0169808,VALID,19.6925,VALID,1,VALID,0.622559,
2002-12-29, 01:56:00,VALID,918.016,VALID,0,VALID,88.847,VALID,0.0169808,VALID,19.7534,VALID,12,VALID,0.936472,
2002-12-29, 01:57:00,VALID,918.009,VALID,0,VALID,88.805,VALID,0,VALID,19.8116,VALID,1,VALID,0.668888,
2002-12-29, 01:58:00,VALID,917.993,VALID,0,VALID,88.8737,VALID,-0.0169808,VALID,19.8339,VALID,7,VALID,0.636364,
2002-12-29, 01:59:00,VALID,917.988,VALID,0,VALID,89.7053,VALID,0,VALID,19.8409,VALID,43,VALID,0.553602,
2002-12-29, 02:00:00,VALID,917.97,VALID,0,VALID,89.3213,VALID,0,VALID,19.8051,VALID,43,VALID,0.726563,
2002-12-29, 02:01:00,VALID,917.962,VALID,0,VALID,89.2425,VALID,0,VALID,19.7825,VALID,30,VALID,0.683002,
2002-12-29, 02:02:00,VALID,917.953,VALID,0,VALID,89.8986,VALID,-0.0339617,VALID,19.7626,VALID,25,VALID,0.901339,
2002-12-29, 02:03:00,VALID,917.918,VALID,0,VALID,90.0321,VALID,0,VALID,19.731,VALID,18,VALID,1.30804,
2002-12-29, 02:04:00,VALID,917.889,VALID,0,VALID,89.8617,VALID,-0.0169808,VALID,19.7151,VALID,17,VALID,1.39795,
2002-12-29, 02:05:00,VALID,917.869,VALID,0,VALID,90.2738,VALID,0.0169808,VALID,19.7049,VALID,17,VALID,1.05243,
2002-12-29, 02:06:00,VALID,917.855,VALID,0,VALID,90.57,VALID,0.0339617,VALID,19.7019,VALID,5,VALID,1.13557,
2002-12-29, 02:07:00,VALID,917.849,VALID,0,VALID,90.1161,VALID,0.0169808,VALID,19.6664,VALID,357,VALID,1.04143,
2002-12-29, 02:08:00,VALID,917.846,VALID,0,VALID,89.582,VALID,0,VALID,19.6985,VALID,359,VALID,1.06272,
2002-12-29, 02:09:00,VALID,917.853,VALID,0,VALID,89.1001,VALID,0.0169808,VALID,19.7698,VALID,7,VALID,1.47157,
2002-12-29, 02:10:00,VALID,917.859,VALID,0,VALID,88.5533,VALID,0.0169808,VALID,19.8439,VALID,9,VALID,1.91832,
2002-12-29, 02:11:00,VALID,917.838,VALID,0,VALID,88.0675,VALID,0,VALID,19.9443,VALID,18,VALID,1.96741,
2002-12-29, 02:12:00,VALID,917.817,VALID,0,VALID,87.9632,VALID,-0.0169808,VALID,20.0018,VALID,17,VALID,1.54263,
2002-12-29, 02:13:00,VALID,917.829,VALID,0,VALID,87.5754,VALID,0,VALID,20.041,VALID,29,VALID,1.55615,
2002-12-29, 02:14:00,VALID,917.814,VALID,0,VALID,87.7153,VALID,-0.0339617,VALID,20.0768,VALID,29,VALID,1.05572,
2002-12-29, 02:15:00,VALID,917.824,VALID,0,VALID,88.168,VALID,0,VALID,20.0537,VALID,14,VALID,0.764476,
2002-12-29, 02:16:00,VALID,917.817,VALID,0,VALID,88.2837,VALID,-0.0169808,VALID,19.9861,VALID,357,VALID,0.752604,
2002-12-29, 02:17:00,VALID,917.794,VALID,0,VALID,88.201,VALID,0,VALID,19.9473,VALID,359,VALID,0.916233,
2002-12-29, 02:18:00,VALID,917.783,VALID,0,VALID,88.3511,VALID,0,VALID,19.9279,VALID,12,VALID,1.30751,
2002-12-29, 02:19:00,VALID,917.748,VALID,0,VALID,88.7275,VALID,0,VALID,19.9018,VALID,16,VALID,1.50971,
2002-12-29, 02:20:00,VALID,917.704,VALID,0,VALID,88.8305,VALID,0,VALID,19.8601,VALID,22,VALID,1.75357,
2002-12-29, 02:21:00,VALID,917.677,VALID,0,VALID,88.5863,VALID,-0.0169808,VALID,19.9187,VALID,25,VALID,1.83134,
2002-12-29, 02:22:00,VALID,917.642,VALID,0,VALID,88.6258,VALID,0,VALID,19.9247,VALID,23,VALID,1.51978,
2002-12-29, 02:23:00,VALID,917.629,VALID,0,VALID,88.524,VALID,0.0169808,VALID,19.9145,VALID,20,VALID,1.33923,
2002-12-29, 02:24:00,VALID,917.629,VALID,0,VALID,88.7669,VALID,0.0509425,VALID,19.905,VALID,12,VALID,1.23024,
2002-12-29, 02:25:00,VALID,917.607,VALID,0,VALID,88.8063,VALID,0.0509425,VALID,19.873,VALID,13,VALID,1.28196,
2002-12-29, 02:26:00,VALID,917.583,VALID,0,VALID,88.9754,VALID,0,VALID,19.8563,VALID,17,VALID,1.43685,
2002-12-29, 02:27:00,VALID,917.572,VALID,0,VALID,89.1446,VALID,-0.0169808,VALID,19.8412,VALID,14,VALID,1.57075,
2002-12-29, 02:28:00,VALID,917.564,VALID,0,VALID,89.2844,VALID,0,VALID,19.8175,VALID,11,VALID,1.5696,
2002-12-29, 02:29:00,VALID,917.534,VALID,0,VALID,89.4345,VALID,0.0339617,VALID,19.8049,VALID,17,VALID,1.90379,
2002-12-29, 02:30:00,VALID,917.498,VALID,0,VALID,89.6939,VALID,0,VALID,19.7758,VALID,25,VALID,2.36362,
2002-12-29, 02:31:00,VALID,917.466,VALID,0,VALID,89.4141,VALID,0.0169808,VALID,19.7822,VALID,25,VALID,2.57275,
2002-12-29, 02:32:00,VALID,917.428,VALID,0,VALID,89.3913,VALID,0.0169808,VALID,19.7817,VALID,13,VALID,1.87623,
2002-12-29, 02:33:00,VALID,917.431,VALID,0,VALID,89.1191,VALID,0,VALID,19.7984,VALID,341,VALID,0.963235,
2002-12-29, 02:34:00,VALID,917.428,VALID,0,VALID,89.3302,VALID,0,VALID,19.8315,VALID,270,VALID,0.724905,
2002-12-29, 02:35:00,VALID,917.434,VALID,0,VALID,90.3348,VALID,0.0339617,VALID,19.7815,VALID,263,VALID,0.494358,
2002-12-29, 02:36:00,VALID,917.418,VALID,0,VALID,91.0876,VALID,0,VALID,19.7467,VALID,276,VALID,0.418837,
2002-12-29, 02:37:00,VALID,917.398,VALID,0,VALID,91.0215,VALID,0.0339617,VALID,19.6888,VALID,309,VALID,0.61482,
2002-12-29, 02:38:00,VALID,917.362,VALID,0,VALID,90.8002,VALID,0.0169808,VALID,19.6726,VALID,2,VALID,0.722098,
2002-12-29, 02:39:00,VALID,917.344,VALID,0,VALID,90.9948,VALID,0.0169808,VALID,19.6664,VALID,4,VALID,0.861384,
2002-12-29, 02:40:00,VALID,917.323,VALID,0,VALID,90.6374,VALID,0,VALID,19.6408,VALID,7,VALID,0.554199,
2002-12-29, 02:41:00,VALID,917.286,VALID,0,VALID,90.5357,VALID,0,VALID,19.6341,VALID,3,VALID,0.98602,
2002-12-29, 02:42:00,VALID,917.281,VALID,0,VALID,90.4912,VALID,0.0169808,VALID,19.6433,VALID,8,VALID,0.824908,
2002-12-29, 02:43:00,VALID,917.259,VALID,0,VALID,90.2203,VALID,0.0169808,VALID,19.6435,VALID,356,VALID,0.87429,
2002-12-29, 02:44:00,VALID,917.249,VALID,0,VALID,90.0499,VALID,0,VALID,19.6666,VALID,8,VALID,0.839844,
2002-12-29, 02:45:00,VALID,917.26,VALID,0,VALID,89.9101,VALID,0.0169808,VALID,19.6788,VALID,7,VALID,0.867622,
2002-12-29, 02:46:00,VALID,917.244,VALID,0,VALID,90.0601,VALID,0.0169808,VALID,19.6883,VALID,14,VALID,0.821496,
2002-12-29, 02:47:00,VALID,917.245,VALID,0,VALID,90.1695,VALID,-0.0169808,VALID,19.6821,VALID,10,VALID,0.82567,
2002-12-29, 02:48:00,VALID,917.245,VALID,0,VALID,90.5115,VALID,0.0169808,VALID,19.653,VALID,359,VALID,0.628795,
2002-12-29, 02:49:00,VALID,917.239,VALID,0,VALID,90.6489,VALID,0,VALID,19.6274,VALID,355,VALID,0.271729,
2002-12-29, 02:50:00,VALID,917.234,VALID,0,VALID,90.4734,VALID,0,VALID,19.6241,VALID,356,VALID,0.425576,
2002-12-29, 02:51:00,VALID,917.23,VALID,0,VALID,90.0945,VALID,0.0169808,VALID,19.6368,VALID,346,VALID,0.575138,
2002-12-29, 02:52:00,VALID,917.247,VALID,0,VALID,90.1542,VALID,-0.0509425,VALID,19.6955,VALID,335,VALID,0.540483,
2002-12-29, 02:53:00,VALID,917.248,VALID,0,VALID,90.1479,VALID,-0.101885,VALID,19.7253,VALID,320,VALID,0.0850694,
2002-12-29, 02:54:00,VALID,917.249,VALID,0,VALID,90.0245,VALID,-0.101885,VALID,19.7382,VALID,320,VALID,0,
2002-12-29, 02:55:00,VALID,917.243,VALID,0,VALID,89.9749,VALID,-0.101885,VALID,19.745,VALID,4,VALID,0.333097,
2002-12-29, 02:56:00,VALID,917.241,VALID,0,VALID,90.1644,VALID,-0.0849042,VALID,19.7808,VALID,34,VALID,0.484152,
2002-12-29, 02:57:00,VALID,917.231,VALID,0,VALID,89.6812,VALID,-0.0849042,VALID,19.7775,VALID,10,VALID,0.575893,
2002-12-29, 02:58:00,VALID,917.221,VALID,0,VALID,89.4345,VALID,-0.101885,VALID,19.8203,VALID,13,VALID,0.565186,
2002-12-29, 02:59:00,VALID,917.219,VALID,0,VALID,90.0779,VALID,-0.0849042,VALID,19.8061,VALID,16,VALID,0.865954,
2002-12-29, 03:00:00,VALID,917.212,VALID,0,VALID,90.3691,VALID,-0.101885,VALID,19.7735,VALID,14,VALID,0.783548,
2002-12-29, 03:01:00,VALID,917.199,VALID,0,VALID,90.776,VALID,-0.0849042,VALID,19.739,VALID,12,VALID,0.714252,
2002-12-29, 03:02:00,VALID,917.183,VALID,0,VALID,90.762,VALID,-0.101885,VALID,19.6903,VALID,359,VALID,0.692925,
2002-12-29, 03:03:00,VALID,917.168,VALID,0,VALID,91.0901,VALID,-0.0849042,VALID,19.6477,VALID,360,VALID,0.687934,
2002-12-29, 03:04:00,VALID,917.154,VALID,0,VALID,90.9083,VALID,-0.0679233,VALID,19.6353,VALID,1,VALID,0.840199,
2002-12-29, 03:05:00,VALID,917.134,VALID,0,VALID,90.5204,VALID,-0.101885,VALID,19.6607,VALID,4,VALID,0.787723,
2002-12-29, 03:06:00,VALID,917.116,VALID,0,VALID,90.7252,VALID,-0.0849042,VALID,19.7221,VALID,5,VALID,0.902232,
2002-12-29, 03:07:00,VALID,917.104,VALID,0,VALID,90.584,VALID,-0.101885,VALID,19.7392,VALID,1,VALID,0.572998,
2002-12-29, 03:08:00,VALID,917.088,VALID,0,VALID,90.4276,VALID,-0.0849042,VALID,19.7711,VALID,9,VALID,0.966488,
2002-12-29, 03:09:00,VALID,917.081,VALID,0,VALID,90.5446,VALID,-0.0849042,VALID,19.8031,VALID,7,VALID,0.705423,
2002-12-29, 03:10:00,VALID,917.08,VALID,0,VALID,90.3602,VALID,-0.101885,VALID,19.8223,VALID,9,VALID,0.856297,
2002-12-29, 03:11:00,VALID,917.073,VALID,0,VALID,89.7702,VALID,-0.0849042,VALID,19.8481,VALID,14,VALID,1.14648,
2002-12-29, 03:12:00,VALID,917.077,VALID,0,VALID,89.5833,VALID,-0.101885,VALID,19.8745,VALID,10,VALID,1.02127,
2002-12-29, 03:13:00,VALID,917.092,VALID,0,VALID,89.6062,VALID,-0.101885,VALID,19.8578,VALID,358,VALID,0.858191,
2002-12-29, 03:14:00,VALID,917.109,VALID,0,VALID,89.3162,VALID,-0.101885,VALID,19.8648,VALID,357,VALID,0.71183,
2002-12-29, 03:15:00,VALID,917.124,VALID,0,VALID,89.4612,VALID,-0.0849042,VALID,19.8713,VALID,13,VALID,0.28817,
2002-12-29, 03:16:00,VALID,917.125,VALID,0,VALID,89.3277,VALID,-0.0849042,VALID,19.8874,VALID,16,VALID,0.239746,
2002-12-29, 03:17:00,VALID,917.149,VALID,0,VALID,89.4307,VALID,-0.0849042,VALID,19.8934,VALID,16,VALID,0.0803865,
2002-12-29, 03:18:00,VALID,917.148,VALID,0,VALID,89.231,VALID,-0.0509425,VALID,19.8872,VALID,16,VALID,0.345588,
2002-12-29, 03:19:00,VALID,917.155,VALID,0,VALID,89.6799,VALID,-0.0849042,VALID,19.8802,VALID,16,VALID,0.156013,
2002-12-29, 03:20:00,VALID,917.167,VALID,0,VALID,89.7766,VALID,-0.101885,VALID,19.8675,VALID,16,VALID,0.046658,
2002-12-29, 03:21:00,VALID,917.19,VALID,0,VALID,89.8872,VALID,-0.0849042,VALID,19.8583,VALID,15,VALID,0.0878906,
2002-12-29, 03:22:00,VALID,917.196,VALID,0,VALID,90.4988,VALID,-0.0509425,VALID,19.8583,VALID,15,VALID,0.0234375,
2002-12-29, 03:23:00,VALID,917.211,VALID,0,VALID,90.9922,VALID,-0.0339617,VALID,19.8548,VALID,15,VALID,0,
2002-12-29, 03:24:00,VALID,917.219,VALID,0,VALID,91.0431,VALID,-0.101885,VALID,19.8223,VALID,15,VALID,0.128125,
2002-12-29, 03:25:00,VALID,917.21,VALID,0,VALID,91.4881,VALID,-0.0679233,VALID,19.7706,VALID,15,VALID,0.18335,
2002-12-29, 03:26:00,VALID,917.233,VALID,0,VALID,92.1468,VALID,-0.0849042,VALID,19.7027,VALID,15,VALID,0.416735,
2002-12-29, 03:27:00,VALID,917.208,VALID,0,VALID,92.2257,VALID,-0.0849042,VALID,19.6296,VALID,15,VALID,0.605239,
2002-12-29, 03:28:00,VALID,917.195,VALID,0,VALID,92.0095,VALID,-0.0509425,VALID,19.5578,VALID,12,VALID,0.774621,
2002-12-29, 03:29:00,VALID,917.188,VALID,0,VALID,91.9281,VALID,-0.0849042,VALID,19.5413,VALID,12,VALID,0.782118,
2002-12-29, 03:30:00,VALID,917.176,VALID,0,VALID,91.9752,VALID,-0.101885,VALID,19.5254,VALID,12,VALID,0.766493,
2002-12-29, 03:31:00,VALID,917.168,VALID,0,VALID,92.1405,VALID,-0.0849042,VALID,19.5123,VALID,20,VALID,0.658617,
2002-12-29, 03:32:00,VALID,917.151,VALID,0,VALID,92.3121,VALID,-0.0849042,VALID,19.4926,VALID,32,VALID,0.713393,
2002-12-29, 03:33:00,VALID,917.14,VALID,0,VALID,92.4927,VALID,-0.0679233,VALID,19.477,VALID,35,VALID,0.652009,
2002-12-29, 03:34:00,VALID,917.135,VALID,0,VALID,92.6478,VALID,-0.0849042,VALID,19.4601,VALID,37,VALID,0.583496,